Regional Weather Roundup
Issued by NWS Albany, NY

Home | Current Version | Previous Version | Graphics & Text | Print | Product List | Glossary Off
Versions: 1 2 3 4 5 6 7 8 9 10 11 12 13 14 15 16 17 18 19 20 21 22 23 24 25 26 27 28 29 30 31 32 33 34 35 36 37 38 39 40 41 42 43 44 45 46 47 48 49 50

000
ASUS41 KALY 281410
RWRALY

NEW YORK STATE HOURLY WEATHER ROUNDUP
NATIONAL WEATHER SERVICE ALBANY NY
1000 AM EDT TUE JUL 28 2015

NOTE: "FAIR" INDICATES FEW OR NO CLOUDS BELOW 12,000 FEET WITH NO
SIGNIFICANT WEATHER AND/OR NO OBSTRUCTIONS TO VISIBILITY.

NYZ032-033-038>043-046>054-057>066-NYZ062>081-281500-
EAST


CITY           SKY/WX    TMP DP  RH WIND       PRES   REMARKS
ALBANY         MOSUNNY   80  66  62 W6        30.01F
GLENS FALLS    SUNNY     76  68  76 SW5       29.99F
POUGHKEEPSIE   MOSUNNY   78  70  76 CALM      30.00F
NEWBURGH       SUNNY     73  70  88 CALM      30.03F
MONTGOMERY     SUNNY     80  72  76 CALM      30.01F
WHITE PLAINS   MOSUNNY   80  71  74 W3        30.00F
ISLIP          MOSUNNY   83  72  69 VRB6      29.97F
NEW YORK CITY  PTSUNNY   84  67  56 NW3       29.99F
CENTRAL PARK   SUNNY     82  67  60 CALM      30.02F
$$

NYZ005>009-017-018-044>046-055-056-281500-
CENTRAL


CITY           SKY/WX    TMP DP  RH WIND       PRES   REMARKS
FULTON         SUNNY     79  67  66 SW5       30.02F
SYRACUSE       PTSUNNY   80  67  64 W5        30.02S
ROME           SUNNY     75  65  70 CALM      30.04F
ELMIRA         SUNNY     74  67  78 SW5       30.05F
BINGHAMTON     SUNNY     75  66  73 W5        30.09R
MONTICELLO     SUNNY     79  68  69 N6        30.08F
$$

NYZ026>034-041>043-281500-
NORTH


CITY           SKY/WX    TMP DP  RH WIND       PRES   REMARKS
WATERTOWN      SUNNY     78  68  71 W9        30.00F
FORT DRUM      NOT AVBL
MASSENA        MOSUNNY   77  67  71 SW6       29.99F
SARANAC LAKE   SUNNY     74  63  68 SE5       30.04S
PLATTSBURGH    SUNNY     74  68  81 SE7       29.99S
$$

NYZ001>004-010>016-019>021-281500-
WEST


CITY           SKY/WX    TMP DP  RH WIND       PRES   REMARKS
NIAGARA FALLS  MOSUNNY   79  63  57 CALM      30.04S
BUFFALO        MOSUNNY   81  62  52 W5        30.05S
DUNKIRK        SUNNY     81  61  50 CALM      30.05F
JAMESTOWN      SUNNY     75  63  64 CALM      30.12S
WELLSVILLE     SUNNY     79  61  53 CALM      30.14S
ROCHESTER      MOSUNNY   79  66  64 SW5       30.04F
PENN YAN       SUNNY     76  64  66 S5        30.06S
$$

             KEY
       WCI = WIND CHILL INDEX
       VSB = VISIBILITY
       HX  = HEAT INDEX
$$



USA.gov is the U.S. government's official web portal to all federal, state and local government web resources and services.